Showing default

GJZ 04, 62293

Orbit data source: Space-Track

GJZ 04, 62293 is a payload satellite owned by CASC (CN) in LEO that was launched on Thu, 12 Dec 2024 UTC via a CHANG ZHENG 2D/YZ-3 launch vehicle from the Jiuquan Satellite Launch Center, China (JSC). Payloads include a variety of satellites, spacecraft, and rockets equipped with specific instruments for various scientific and technological missions. These include communications satellites like Starlink; space stations such as the ISS; scientific satellites like the Hubble; Earth observation satellites from companies like Planet Labs, Umbra, and HawkEye 360; GPS; miniature CubeSats for education and research; and military/defense satellites.

Loading next visibility...
GJZ 04 details
Identifier
62293, 2024-238D
Orbit
LEO
Last TLE update9 hours ago
Origin
Flag of CNCASC (CN / PRC)
ManufacturerHITSAT
MissionOperational spacecraft
Bus & MotorHARBFLAT, Unknown motor
Mass~150 kg wet, ~150 kg dry
Launch date (UTC)
2024-12-12 (2 weeks ago)
Launch vehicle
CHANG ZHENG 2D/YZ-3
Launch site
Jiuquan Satellite Launch Center, China (JSC)
Object type
Payload
Rocket body
Debris
Shape & HBRUnknown
Radar Cross SectionLarge (>1 m²)

Expand to show TLE details & history

TLE from 9 hours ago
0 GJZ 04
1 62293U 24238D   24361.08774312  .00000207  00000-0  33923-3 0  9991
2 62293  59.9132  99.6069 0011245 297.1395  62.8465 13.75314151  1903
Epoch: 2024-12-26T02:06Z
Definitive object data (Epoch: 2024-12-26T02:06:21.005Z)
Latitude-0.00008°
Longitude-27.05284°
Altitude978.27 km
Speed7.365 km/s
True Right ascension06h 38m 25s
True Declination0° 00' 00"
Sunlit
Object was in full shadow at TLE epoch
Visualization TLE readout
Latitude58.71116°
Longitude80.27686°
Altitude996.939 km
Speed7.356 km/s
Apparent Right ascension19h 16m 22s
Apparent Declination31° 26' 27"
Sunlit
Object is in daylight
Visualization observer readout
Local Sidereal Time10:40:02
Azimuth41.627° NE
Elevation-4.465°
Doppler factor1
Orbital elements
Apogee altitude988.096 km
Perigee altitude971.548 km
Semi-major axis7,357.959 km
Eccentricity0.0011245
Inclination59.9132°
RAAN99.6069°
Arg. of periapsis297.1395°
True anomaly62.96123°
Mean anomaly62.8465°
Eccentric anomaly62.90386°
Mean motion3.4388 °/min
BSTAR0.00033923
Orbital period104.69 mins
Loading maneuver chart data...
Loading historical data...
Loading historical data...
Loading historical data...
Loading historical data...
Loading historical data...
Loading historical data...
Loading historical data...
Other satellites on launch #238 in the year 2024 (2024-12-12 UTC)

GJZ 04 Visibility forecast

Observer location: undefined°, undefined

Span
Click to sort rows by Start time (UTC) header in descending order
Start Az.
Max El. time (UTC)
Max El. Az.
Max El.
End time (UTC)
End Az.
4 mins2024-12-26 12:57:42.844Z336.477° NNW2024-12-26 12:59:42.844Z355.051° N11.903°2024-12-26 13:01:42.844Z13.989° NNE
6 mins2024-12-26 14:48:42.844Z356.138° N2024-12-26 14:51:42.844Z29.579° NE17.651°2024-12-26 14:54:42.844Z60.273° ENE
10 mins2024-12-26 16:36:42.844Z332.215° NNW2024-12-26 16:40:42.844Z29.672° NE40.348°2024-12-26 16:46:42.844Z124.006° SE
8 mins2024-12-26 18:25:42.844Z288.261° WNW2024-12-26 18:29:42.844Z236.981° WSW24.924°2024-12-26 18:33:42.844Z192.882° SSW
10 mins2024-12-27 07:53:42.844Z179.202° S2024-12-27 07:57:42.844Z129.258° SE31.896°2024-12-27 08:03:42.844Z54.536° ENE
11 mins2024-12-27 09:41:42.844Z250.205° W2024-12-27 09:46:42.844Z319.628° NNW35.243°2024-12-27 09:52:42.844Z29.737° NE
|